Hourly Data Report for October 18, 2016

All times are specified in Local Standard Time (LST). Add 1 hour to adjust for Daylight Saving Time where and when it is observed.

SAINT JOHN A
NEW BRUNSWICK

45°18'58.000" N
65°53'24.000" W
108.80 m
8104901
71609
YSJ

Download Data

Hourly Data (October 2016)
Hourly Data Report for October 18, 2016
Temp Definition
°C
Dew Point Temp Definition
°C
Rel Hum Definition
%
Wind Dir Definition
10's deg

Wind Spd Definition
km/h
Visibility Definition
km
Stn Press Definition
kPa
Hmdx Definition


Wind Chill Definition


Weather Definition


TIME
00:00 Legend Double Dagger 4.6 3.1 90 33 13 24.1 100.13     LegendNANA
01:00 Legend Double Dagger 6.6 3.6 81 35 13 24.1 100.18     LegendNANA
02:00 Legend Double Dagger 6.3 3.6 83 2 7 24.1 100.21     Mostly Cloudy
03:00 Legend Double Dagger 6.5 3.7 82 36 9 24.1 100.25     LegendNANA
04:00 Legend Double Dagger 6.1 3.8 85 5 5 24.1 100.31     LegendNANA
05:00 Legend Double Dagger 6.0 4.7 91 4 6 24.1 100.34     Cloudy
06:00 Legend Double Dagger 5.4 4.1 91 6 7 24.1 100.37     LegendNANA
07:00 Legend Double Dagger 4.5 4.5 100 6 6 24.1 100.43     LegendNANA
08:00 Legend Double Dagger 6.1 4.4 89 5 8 24.1 100.53     Mostly Cloudy
09:00 Legend Double Dagger 9.6 4.2 69 36 3 24.1 100.58     LegendNANA
10:00 Legend Double Dagger 11.8 5.9 67 12 17 24.1 100.54     LegendNANA
11:00 Legend Double Dagger 13.1 5.8 61 13 18 24.1 100.52     Mostly Cloudy
12:00 Legend Double Dagger 13.1 5.1 58 14 19 24.1 100.52     LegendNANA
13:00 Legend Double Dagger 13.8 5.5 57 11 19 24.1 100.37     LegendNANA
14:00 Legend Double Dagger 12.9 4.7 57 13 17 24.1 100.35     Mostly Cloudy
15:00 Legend Double Dagger 12.6 5.1 60 11 16 24.1 100.27     LegendNANA
16:00 Legend Double Dagger 12.2 6.5 68 11 20 24.1 100.14     LegendNANA
17:00 Legend Double Dagger 11.9 6.9 71 12 20 24.1 100.12     Cloudy
18:00 Legend Double Dagger 12.6 7.9 73 13 18 24.1 100.06     LegendNANA
19:00 Legend Double Dagger 13.3 9.0 75 15 27 24.1 100.01     LegendNANA
20:00 Legend Double Dagger 12.8 9.5 80 15 26 24.1 99.96     Cloudy
21:00 Legend Double Dagger 12.4 9.4 82 14 23 24.1 99.88     LegendNANA
22:00 Legend Double Dagger 12.7 11.1 90 15 26 8.1 99.81     Rain,Fog
23:00 Legend Double Dagger 13.4 13.4 100 17 30 4.8 99.63     Fog

Notes on Data Quality.

Legend

  • E = Estimated
  • M = Missing
  • NA = Not Available
  • ‡ = Partner data that is not subject to review by the National Climate Archives
Date modified: